Weather in Podduby

Russia / Kaliningrad Oblast     54°36′15″N   22°04′42″E
temp.,
°C
wind,
m/s
gust,
m/s
humid.,
%
clouds,
%
prec.,
mm/h
press.,
hPa
HPBL,
m
2 july, sat
sat223:00+20se51488100 0.8 1016343
02:00+19se2294100 2.6 101821
05:00+18se3993100 1.3 1017162
08:00+21wsw358693 1.3 1018397
11:00+21wnw4694100 0.8 1020458
14:00+19nw5896100 2.9 1021511
17:00+17nw51097100 3.8 1021544
20:00+16nw3995100 5.9 1022495
3 july, sun
sun323:00+14nw379780 0.0 1022187
02:00+13nw2697100 0.0 1022124
05:00+13nw249821 0.0 1022101
08:00+17n348716 0.0 1022387
11:00+21n23690 0.0 1021839
14:00+23n226520 0.0 10201138
17:00+23nne226731 0.0 10201160
20:00+21n117955 0.0 101917
4 july, mon
mon423:00+18nne227697 0.0 101951
02:00+18ne2275100 0.0 101841
05:00+18ese118280 0.0 101824
08:00+21ssw127830 0.0 1017327
11:00+24sw2366100 0.0 10171097
14:00+25w2358100 0.0 10161492
17:00+25wsw1159100 0.0 10161242
20:00+22wnw11763 0.1 101611
5 july, tue
tue523:00+16nw2395100 0.6 101750
02:00+16nnw2496100 1.1 101793
05:00+15nnw1194100 0.1 101814
08:00+17nw1286100 0.3 1019219
11:00+19nnw2374100 0.1 1019503
14:00+19nnw2377100 0.1 1019231
17:00+20n2472100 0.0 1019668
20:00+17nnw3687100 0.4 1019210
6 july, wed
wed623:00+14nw11918 0.0 102017
02:00+14wsw238696 0.0 101979
05:00+12wsw369246 0.0 1019126
08:00+16wsw59784 0.0 1019651
11:00+19w69613 0.0 10181494
14:00+18wnw687448 0.4 1018967
17:00+18wnw58778 0.6 10181036
20:00+15w38805 0.7 1018262